Date String (YYYY-MM-DD hh:mm:ss) UTC,Instrument flags,Ambient pressure (hPa),Sample flow (lpm),Bypass flow (lpm),Sample temperature (°C),Ambient temperature (°C),ASC tube jacket temperature (°C),LED temperature (°C),Box temperature (°C),Sample RH (%),Span deviation,Mass concentration (μg/m³),Mass concentration (μg/m³),Mass concentration (μg/m³)
DateTimeUTC,F1_M11,P_M11,Q1_M11,Q2_M11,T1_M11,T2_M11,T3_M11,T4_M11,T5_M11,U1_M11,ZSPAN_M11,X0_M11,X2_M11,X1_M11
2021-10-01 07:00:00,,0831.8,5.01,0.00,28.8,27.9,00.0,38.1,30.6,21.1,0001.3,0009.46,0004.24,0003.79
2021-10-01 07:01:00,,0831.9,5.00,0.00,28.8,27.9,00.0,38.0,30.6,20.9,0001.8,0009.48,0004.29,0003.81
2021-10-01 07:02:00,,0831.8,4.99,0.00,28.8,27.9,00.0,38.0,30.6,20.9,0002.3,0009.19,0004.33,0003.83
2021-10-01 07:03:00,,0831.9,5.00,0.00,28.8,27.9,00.0,38.0,30.5,20.8,0002.5,0008.89,0004.34,0003.87
2021-10-01 07:04:00,,0831.9,5.01,0.00,28.8,27.9,00.0,38.0,30.5,20.6,0002.2,0009.01,0004.37,0003.87
2021-10-01 07:05:00,,0831.9,5.01,0.00,28.8,27.9,00.0,38.0,30.5,20.4,0001.9,0008.49,0004.39,0003.89
2021-10-01 07:06:00,,0831.9,4.98,0.00,28.8,27.9,00.0,38.0,30.5,20.4,0001.4,0008.41,0004.43,0003.90
2021-10-01 07:07:00,,0831.8,4.99,0.00,28.7,27.9,00.0,38.0,30.5,20.5,0001.5,0008.51,0004.42,0003.88
2021-10-01 07:08:00,,0831.8,5.01,0.00,28.7,27.9,00.0,37.9,30.5,20.5,0001.7,0008.53,0004.42,0003.86
2021-10-01 07:09:00,,0831.8,4.99,0.00,28.7,27.8,00.0,37.9,30.5,20.5,0000.4,0007.81,0004.38,0003.82
2021-10-01 07:10:00,,0831.8,4.99,0.00,28.7,27.9,00.0,37.9,30.5,20.5,0000.3,0007.85,0004.36,0003.79
2021-10-01 07:11:00,,0831.7,5.01,0.00,28.7,27.9,00.0,37.9,30.5,20.4,0000.0,0007.82,0004.34,0003.76
2021-10-01 07:12:00,,0831.7,5.00,0.00,28.7,27.9,00.0,37.9,30.5,20.4,0000.0,0007.86,0004.34,0003.75
2021-10-01 07:13:00,,0831.7,4.99,0.00,28.7,27.9,00.0,37.9,30.5,20.4,0000.0,0007.96,0004.34,0003.74
2021-10-01 07:14:00,,0831.7,5.00,0.00,28.7,27.9,00.0,37.9,30.5,20.3,0000.0,0008.08,0004.34,0003.71
2021-10-01 07:15:00,,0831.7,5.01,0.00,28.7,27.8,00.0,37.9,30.5,20.2,0000.0,0007.94,0004.28,0003.69
2021-10-01 07:16:00,,0831.7,4.99,0.00,28.7,27.8,00.0,37.9,30.5,20.1,0000.0,0007.95,0004.24,0003.68
2021-10-01 07:17:00,,0831.7,4.99,0.00,28.7,27.8,00.0,37.9,30.5,20.0,0000.0,0007.79,0004.18,0003.65
2021-10-01 07:18:00,,0831.7,5.00,0.00,28.7,27.8,00.0,37.9,30.5,20.1,0000.0,0007.80,0004.11,0003.62
2021-10-01 07:19:00,,0831.7,5.01,0.00,28.7,27.8,00.0,37.8,30.4,20.1,0000.0,0007.74,0004.04,0003.58
2021-10-01 07:20:00,,0831.7,4.98,0.00,28.7,27.8,00.0,37.8,30.4,20.1,0000.0,0007.73,0004.03,0003.55
2021-10-01 07:21:00,,0831.7,5.01,0.00,28.6,27.8,00.0,37.8,30.4,20.1,0000.0,0007.65,0003.99,0003.52
2021-10-01 07:22:00,,0831.7,5.00,0.00,28.7,27.8,00.0,37.8,30.4,20.1,0000.0,0007.92,0003.97,0003.50
2021-10-01 07:23:00,,0831.7,5.00,0.00,28.6,27.8,00.0,37.8,30.4,20.1,0000.0,0008.15,0003.90,0003.46
2021-10-01 07:24:00,,0831.7,5.01,0.00,28.6,27.8,00.0,37.8,30.4,20.1,0000.0,0008.01,0003.87,0003.44
2021-10-01 07:25:00,,0831.7,5.00,0.00,28.7,27.8,00.0,37.8,30.4,20.0,0000.0,0008.21,0003.87,0003.42
2021-10-01 07:26:00,,0831.7,4.99,0.00,28.7,27.9,00.0,37.8,30.4,19.9,0000.0,0008.36,0003.88,0003.41
2021-10-01 07:27:00,,0831.7,4.99,0.00,28.7,27.9,00.0,37.8,30.4,19.8,0000.0,0008.27,0003.86,0003.39
2021-10-01 07:28:00,,0831.7,5.00,0.00,28.7,27.9,00.0,37.8,30.4,19.8,0000.0,0008.21,0003.84,0003.38
2021-10-01 07:29:00,,0831.7,5.00,0.00,28.7,27.8,00.0,37.8,30.4,19.8,0000.0,0007.88,0003.82,0003.38
2021-10-01 07:30:00,,0831.6,5.00,0.00,28.7,27.9,00.0,37.8,30.4,19.8,0000.0,0008.17,0003.87,0003.38
2021-10-01 07:31:00,,0831.6,4.99,0.00,28.7,27.9,00.0,37.8,30.4,19.7,0000.0,0008.38,0003.85,0003.38
2021-10-01 07:32:00,,0831.6,5.00,0.00,28.7,27.9,00.0,37.8,30.4,19.6,0000.0,0008.76,0003.85,0003.36
2021-10-01 07:33:00,,0831.5,4.99,0.00,28.7,27.9,00.0,37.8,30.5,19.6,0000.1,0008.81,0003.82,0003.36
2021-10-01 07:34:00,,0831.5,4.99,0.00,28.7,27.9,00.0,37.8,30.5,19.6,0000.0,0008.51,0003.81,0003.36
2021-10-01 07:35:00,,0831.5,5.00,0.00,28.7,27.9,00.0,37.8,30.5,19.7,0000.3,0008.72,0003.79,0003.35
2021-10-01 07:36:00,,0831.6,5.01,0.00,28.7,27.9,00.0,37.8,30.5,19.6,0000.0,0008.65,0003.77,0003.34
2021-10-01 07:37:00,,0831.5,5.00,0.00,28.7,27.9,00.0,37.8,30.5,19.6,0000.0,0008.55,0003.79,0003.33
2021-10-01 07:38:00,,0831.5,4.99,0.00,28.8,27.9,00.0,37.8,30.5,19.5,0000.0,0008.64,0003.80,0003.32
2021-10-01 07:39:00,,0831.5,5.01,0.00,28.8,27.9,00.0,37.8,30.5,19.5,0000.0,0008.71,0003.81,0003.32
2021-10-01 07:40:00,,0831.6,5.01,0.00,28.8,27.9,00.0,37.8,30.5,19.5,0000.0,0009.05,0003.82,0003.32
2021-10-01 07:41:00,,0831.6,4.99,0.00,28.8,27.9,00.0,37.8,30.5,19.5,0000.0,0008.97,0003.83,0003.31
2021-10-01 07:42:00,,0831.7,5.00,0.00,28.8,27.9,00.0,37.9,30.5,19.5,0000.0,0008.70,0003.84,0003.32
2021-10-01 07:43:00,,0831.7,5.01,0.00,28.8,27.9,00.0,37.9,30.6,19.4,0000.0,0008.35,0003.86,0003.33
2021-10-01 07:44:00,,0831.8,4.99,0.00,28.8,27.9,00.0,37.9,30.6,19.3,0000.0,0008.13,0003.91,0003.32
2021-10-01 07:45:00,,0831.7,5.00,0.00,28.8,27.9,00.0,37.9,30.6,19.4,0000.0,0008.08,0003.93,0003.32
2021-10-01 07:46:00,,0831.7,5.00,0.00,28.8,27.9,00.0,37.9,30.6,19.3,0000.0,0007.93,0003.94,0003.32
2021-10-01 07:47:00,,0831.7,5.00,0.00,28.8,27.9,00.0,37.9,30.6,19.3,0000.0,0007.88,0003.96,0003.32
2021-10-01 07:48:00,,0831.7,5.00,0.00,28.8,27.9,00.0,37.9,30.6,19.3,0000.0,0007.90,0003.95,0003.32
2021-10-01 07:49:00,,0831.7,5.00,0.00,28.8,27.9,00.0,37.9,30.6,19.3,0000.0,0008.14,0003.94,0003.32
2021-10-01 07:50:00,,0831.7,5.00,0.00,28.8,27.9,00.0,37.9,30.5,19.3,0000.0,0008.54,0003.94,0003.32
2021-10-01 07:51:00,,0831.7,5.01,0.00,28.8,27.9,00.0,37.9,30.5,19.3,0000.0,0008.29,0003.96,0003.32
2021-10-01 07:52:00,,0831.7,5.00,0.00,28.8,27.9,00.0,37.9,30.6,19.2,0000.0,0008.17,0003.93,0003.32
2021-10-01 07:53:00,,0831.7,4.99,0.00,28.8,27.9,00.0,37.9,30.6,19.2,0000.4,0008.15,0003.91,0003.31
2021-10-01 07:54:00,,0831.7,5.01,0.00,28.8,27.9,00.0,37.9,30.6,19.2,0000.0,0008.12,0003.89,0003.30
2021-10-01 07:55:00,,0831.7,4.99,0.00,28.8,28.0,00.0,37.9,30.6,19.2,0000.0,0008.23,0003.89,0003.30
2021-10-01 07:56:00,,0831.7,4.99,0.00,28.8,28.0,00.0,37.9,30.6,19.1,0000.0,0008.33,0003.93,0003.31
2021-10-01 07:57:00,,0831.7,4.99,0.00,28.8,28.0,00.0,37.9,30.6,19.1,0000.0,0008.33,0003.92,0003.30
2021-10-01 07:58:00,,0831.7,4.99,0.00,28.8,28.0,00.0,37.9,30.6,19.2,0000.0,0008.19,0003.89,0003.31
2021-10-01 07:59:00,,0831.7,5.01,0.00,28.8,28.0,00.0,37.9,30.6,19.2,0000.0,0008.15,0003.88,0003.32
